�������l�o���
Date,Time,MP-1(��Sv/h),MP-2(��Sv/h),MP-3(��Sv/h),MP-4(��Sv/h),MP-5(��Sv/h),MP-6(��Sv/h),MP-7(��Sv/h),MP-8(��Sv/h),����,����(m/s),���J
2020/10/31,00:00,0.664,0.961,0.607,1.184,0.851,0.384,0.671,0.635,�k�k��,3.6,��
2020/10/31,00:10,0.664,0.962,0.606,1.182,0.852,0.384,0.672,0.634,�k�k��,3.9,��
2020/10/31,00:20,0.663,0.960,0.608,1.181,0.851,0.384,0.672,0.634,�k�k��,3.7,��
2020/10/31,00:30,0.665,0.960,0.606,1.181,0.850,0.385,0.671,0.633,�k��,3.7,��
2020/10/31,00:40,0.665,0.961,0.608,1.181,0.850,0.385,0.671,0.634,�k��,3.6,��
2020/10/31,00:50,0.664,0.962,0.608,1.181,0.852,0.385,0.672,0.633,�k��,3.6,��
2020/10/31,01:00,0.665,0.961,0.607,1.183,0.852,0.384,0.671,0.634,�k��,4.1,��
2020/10/31,01:10,0.665,0.961,0.606,1.180,0.852,0.386,0.670,0.634,�k�k��,4.5,��
2020/10/31,01:20,0.664,0.963,0.607,1.180,0.850,0.383,0.671,0.635,�k�k��,5.1,��
2020/10/31,01:30,0.665,0.963,0.607,1.178,0.850,0.383,0.671,0.634,�k��,4.7,��
2020/10/31,01:40,0.663,0.961,0.606,1.182,0.850,0.384,0.671,0.633,�k�k��,5.5,��
2020/10/31,01:50,0.664,0.961,0.607,1.183,0.851,0.385,0.671,0.635,�k�k��,5.3,��
2020/10/31,02:00,0.663,0.960,0.606,1.181,0.851,0.386,0.671,0.633,�k�k��,4.2,��
2020/10/31,02:10,0.666,0.961,0.607,1.183,0.850,0.384,0.670,0.632,�k�k��,3.2,��
2020/10/31,02:20,0.663,0.963,0.608,1.182,0.852,0.384,0.671,0.635,�k��,2.0,��
2020/10/31,02:30,0.664,0.961,0.607,1.182,0.853,0.384,0.673,0.632,���k��,1.2,��
2020/10/31,02:40,0.664,0.961,0.605,1.182,0.851,0.383,0.670,0.634,���k��,1.7,��
2020/10/31,02:50,0.663,0.962,0.607,1.181,0.851,0.384,0.670,0.634,���k��,2.0,��
2020/10/31,03:00,0.665,0.960,0.607,1.181,0.852,0.384,0.670,0.634,��,2.3,��
2020/10/31,03:10,0.664,0.962,0.606,1.181,0.851,0.386,0.671,0.634,���k��,3.6,��
2020/10/31,03:20,0.665,0.962,0.607,1.181,0.848,0.383,0.670,0.634,�k��,4.9,��
2020/10/31,03:30,0.664,0.960,0.607,1.182,0.849,0.384,0.672,0.634,�k��,6.1,��
2020/10/31,03:40,0.663,0.960,0.605,1.181,0.850,0.384,0.671,0.633,�k��,6.0,��
2020/10/31,03:50,0.662,0.961,0.607,1.182,0.850,0.385,0.670,0.633,�k��,6.4,��
2020/10/31,04:00,0.664,0.961,0.606,1.182,0.850,0.383,0.672,0.636,���k��,7.5,��
2020/10/31,04:10,0.664,0.961,0.606,1.183,0.849,0.384,0.670,0.635,���k��,7.7,��
2020/10/31,04:20,0.665,0.959,0.607,1.181,0.849,0.383,0.670,0.634,�k��,6.8,��
2020/10/31,04:30,0.663,0.960,0.609,1.181,0.850,0.384,0.670,0.635,�k��,6.1,��
2020/10/31,04:40,0.664,0.959,0.605,1.183,0.848,0.383,0.671,0.633,�k��,6.1,��
2020/10/31,04:50,0.661,0.960,0.606,1.180,0.848,0.385,0.671,0.634,�k��,6.6,��
2020/10/31,05:00,0.662,0.959,0.607,1.182,0.849,0.383,0.673,0.634,�k��,7.2,��
2020/10/31,05:10,0.664,0.960,0.606,1.180,0.849,0.383,0.672,0.634,�k��,8.1,��
2020/10/31,05:20,0.661,0.959,0.606,1.181,0.850,0.384,0.672,0.632,�k��,7.6,��
2020/10/31,05:30,0.662,0.960,0.606,1.182,0.849,0.383,0.672,0.633,�k��,8.4,��
2020/10/31,05:40,0.665,0.959,0.606,1.184,0.850,0.383,0.672,0.634,�k��,7.5,��
2020/10/31,05:50,0.662,0.960,0.606,1.180,0.851,0.385,0.671,0.635,���k��,7.1,��
2020/10/31,06:00,0.664,0.960,0.605,1.181,0.849,0.383,0.672,0.633,�k��,6.9,��
2020/10/31,06:10,0.663,0.962,0.607,1.179,0.847,0.383,0.671,0.633,�k��,6.7,��
2020/10/31,06:20,0.665,0.959,0.607,1.183,0.849,0.384,0.672,0.633,�k��,5.0,��
2020/10/31,06:30,0.664,0.959,0.607,1.181,0.850,0.384,0.673,0.634,�k��,4.9,��
2020/10/31,06:40,0.663,0.958,0.607,1.181,0.849,0.383,0.671,0.632,�k��,6.4,��
2020/10/31,06:50,0.664,0.959,0.606,1.181,0.848,0.385,0.672,0.634,�k��,6.5,��
2020/10/31,07:00,0.663,0.958,0.607,1.183,0.848,0.384,0.672,0.634,�k�k��,6.2,��
2020/10/31,07:10,0.662,0.959,0.606,1.182,0.848,0.384,0.671,0.634,�k�k��,6.6,��
2020/10/31,07:20,0.664,0.961,0.607,1.182,0.849,0.383,0.671,0.635,�k�k��,6.7,��
2020/10/31,07:30,0.665,0.960,0.609,1.184,0.848,0.384,0.671,0.635,�k�k��,5.7,��
2020/10/31,07:40,0.663,0.963,0.605,1.181,0.850,0.384,0.672,0.633,�k�k��,5.6,��
2020/10/31,07:50,0.664,0.960,0.606,1.181,0.849,0.384,0.671,0.634,�k�k��,6.0,��
2020/10/31,08:00,0.664,0.959,0.605,1.181,0.849,0.384,0.673,0.633,�k�k��,5.8,��
2020/10/31,08:10,0.666,0.960,0.606,1.180,0.850,0.385,0.672,0.633,�k�k��,5.4,��
2020/10/31,08:20,0.664,0.959,0.607,1.181,0.849,0.385,0.673,0.633,�k�k��,5.9,��
2020/10/31,08:30,0.664,0.960,0.606,1.183,0.849,0.384,0.672,0.634,�k�k��,5.2,��
2020/10/31,08:40,0.665,0.960,0.607,1.184,0.850,0.385,0.669,0.635,�k�k��,4.5,��
2020/10/31,08:50,0.667,0.957,0.606,1.181,0.851,0.385,0.671,0.633,�k�k��,5.0,��
2020/10/31,09:00,0.664,0.956,0.605,1.183,0.851,0.386,0.671,0.635,�k,6.3,��
2020/10/31,09:10,0.666,0.954,0.607,1.183,0.849,0.385,0.671,0.634,�k�k��,5.7,��
2020/10/31,09:20,0.664,0.956,0.609,1.182,0.848,0.385,0.672,0.636,�k,6.3,��
2020/10/31,09:30,0.666,0.956,0.607,1.178,0.848,0.386,0.672,0.635,�k�k��,5.8,��
2020/10/31,09:40,0.665,0.956,0.607,1.181,0.849,0.385,0.670,0.635,�k,9.0,��
2020/10/31,09:50,0.665,0.956,0.608,1.182,0.851,0.384,0.671,0.634,�k,8.8,��
2020/10/31,10:00,0.664,0.956,0.608,1.182,0.853,0.385,0.671,0.634,�k,9.3,��
2020/10/31,10:10,0.665,0.957,0.607,1.183,0.848,0.382,0.670,0.635,�k,7.4,��
2020/10/31,10:20,0.665,0.955,0.605,1.182,0.850,0.383,0.670,0.635,�k�k��,9.1,��
2020/10/31,10:30,0.664,0.956,0.608,1.184,0.849,0.383,0.670,0.635,�k�k��,8.9,��
2020/10/31,10:40,0.665,0.958,0.604,1.184,0.850,0.383,0.673,0.634,�k�k��,8.5,��
2020/10/31,10:50,0.666,0.956,0.606,1.183,0.850,0.383,0.670,0.635,�k�k��,8.9,��
2020/10/31,11:00,0.664,0.957,0.605,1.184,0.851,0.382,0.673,0.634,�k�k��,7.9,��
2020/10/31,11:10,0.665,0.959,0.606,1.181,0.851,0.383,0.671,0.634,�k�k��,8.1,��
2020/10/31,11:20,0.667,0.959,0.604,1.183,0.849,0.383,0.670,0.636,�k�k��,8.2,��
2020/10/31,11:30,0.666,0.960,0.608,1.183,0.848,0.380,0.671,0.635,�k�k��,8.9,��
2020/10/31,11:40,0.664,0.958,0.603,1.186,0.850,0.382,0.671,0.636,�k�k��,8.9,��
2020/10/31,11:50,0.667,0.960,0.605,1.185,0.851,0.384,0.670,0.635,�k�k��,8.4,��
2020/10/31,12:00,0.665,0.961,0.605,1.186,0.852,0.384,0.670,0.635,�k�k��,8.7,��
2020/10/31,12:10,0.666,0.960,0.604,1.183,0.850,0.384,0.672,0.634,�k�k��,8.5,��
2020/10/31,12:20,0.665,0.961,0.605,1.185,0.850,0.385,0.672,0.633,�k�k��,7.8,��
2020/10/31,12:30,0.665,0.961,0.604,1.185,0.851,0.384,0.673,0.632,�k�k��,8.6,��
2020/10/31,12:40,0.665,0.960,0.603,1.185,0.855,0.385,0.672,0.633,�k�k��,8.6,��
2020/10/31,12:50,0.665,0.959,0.606,1.184,0.853,0.385,0.671,0.631,�k�k��,7.9,��
2020/10/31,13:00,0.666,0.960,0.606,1.184,0.852,0.384,0.673,0.632,�k�k��,8.1,��
2020/10/31,13:10,0.665,0.959,0.606,1.186,0.852,0.384,0.671,0.632,�k�k��,7.4,��
2020/10/31,13:20,0.667,0.960,0.606,1.182,0.850,0.385,0.669,0.633,�k��,7.9,��
2020/10/31,13:30,0.668,0.958,0.605,1.186,0.851,0.383,0.670,0.631,�k�k��,7.4,��
2020/10/31,13:40,0.665,0.959,0.608,1.185,0.853,0.384,0.671,0.631,�k�k��,6.7,��
2020/10/31,13:50,0.667,0.959,0.605,1.186,0.852,0.384,0.671,0.633,�k�k��,6.8,��
2020/10/31,14:00,0.664,0.958,0.606,1.185,0.853,0.383,0.670,0.632,�k�k��,5.8,��
2020/10/31,14:10,0.667,0.960,0.605,1.184,0.852,0.384,0.671,0.631,�k�k��,6.1,��
2020/10/31,14:20,0.665,0.962,0.606,1.186,0.853,0.384,0.671,0.631,�k�k��,5.1,��
2020/10/31,14:30,0.664,0.959,0.607,1.183,0.852,0.383,0.670,0.633,�k�k��,5.2,��
2020/10/31,14:40,0.666,0.959,0.605,1.185,0.853,0.384,0.671,0.631,�k��,5.7,��
2020/10/31,14:50,0.665,0.958,0.606,1.186,0.852,0.383,0.669,0.633,�k��,5.3,��
2020/10/31,15:00,0.666,0.958,0.607,1.186,0.852,0.383,0.672,0.631,�k��,4.8,��
2020/10/31,15:10,0.667,0.961,0.605,1.186,0.853,0.384,0.672,0.632,�k��,4.5,��
2020/10/31,15:20,0.667,0.962,0.606,1.186,0.852,0.385,0.670,0.632,���k��,4.2,��
2020/10/31,15:30,0.665,0.964,0.606,1.184,0.850,0.383,0.670,0.633,���k��,4.6,��
2020/10/31,15:40,0.665,0.962,0.607,1.184,0.852,0.385,0.671,0.634,���k��,3.6,��
2020/10/31,15:50,0.665,0.964,0.606,1.182,0.853,0.385,0.672,0.633,���k��,3.6,��
2020/10/31,16:00,0.666,0.962,0.606,1.186,0.853,0.385,0.671,0.635,���k��,3.9,��
2020/10/31,16:10,0.664,0.964,0.606,1.182,0.852,0.385,0.674,0.634,���k��,2.9,��
2020/10/31,16:20,0.663,0.965,0.605,1.183,0.851,0.384,0.672,0.634,���k��,2.6,��
2020/10/31,16:30,0.666,0.964,0.605,1.185,0.852,0.384,0.673,0.635,���k��,2.6,��
2020/10/31,16:40,0.667,0.964,0.608,1.187,0.853,0.384,0.672,0.633,���k��,1.7,��
2020/10/31,16:50,0.667,0.964,0.607,1.182,0.852,0.385,0.673,0.633,���k��,2.3,��
2020/10/31,17:00,0.667,0.965,0.607,1.186,0.855,0.384,0.672,0.635,���k��,1.7,��
2020/10/31,17:10,0.668,0.964,0.606,1.183,0.855,0.386,0.672,0.633,���k��,2.0,��
2020/10/31,17:20,0.667,0.964,0.607,1.185,0.854,0.384,0.672,0.633,���k��,2.0,��
2020/10/31,17:30,0.665,0.963,0.606,1.184,0.853,0.384,0.671,0.633,��,2.3,��
2020/10/31,17:40,0.667,0.964,0.607,1.185,0.854,0.384,0.672,0.633,���k��,2.6,��
2020/10/31,17:50,0.667,0.963,0.608,1.184,0.853,0.384,0.672,0.632,��,1.7,��
2020/10/31,18:00,0.666,0.964,0.607,1.185,0.853,0.383,0.673,0.633,-,CALM,��
2020/10/31,18:10,0.667,0.964,0.607,1.183,0.854,0.383,0.671,0.633,���k��,0.6,��
2020/10/31,18:20,0.667,0.964,0.607,1.182,0.853,0.384,0.671,0.633,��쐼,0.6,��
2020/10/31,18:30,0.667,0.963,0.606,1.184,0.853,0.385,0.671,0.633,��쐼,0.6,��
2020/10/31,18:40,0.666,0.963,0.608,1.184,0.853,0.383,0.672,0.634,��,0.9,��
2020/10/31,18:50,0.667,0.964,0.607,1.184,0.853,0.383,0.673,0.634,��,0.9,��
2020/10/31,19:00,0.667,0.965,0.608,1.186,0.854,0.384,0.671,0.634,��쓌,0.9,��
2020/10/31,19:10,0.666,0.964,0.606,1.182,0.855,0.384,0.671,0.632,��,1.2,��
2020/10/31,19:20,0.667,0.964,0.607,1.185,0.853,0.384,0.673,0.634,�쐼,1.9,��
2020/10/31,19:30,0.665,0.964,0.607,1.182,0.851,0.384,0.671,0.634,��쐼,1.2,��
2020/10/31,19:40,0.666,0.963,0.608,1.184,0.853,0.382,0.674,0.636,��쐼,2.0,��
2020/10/31,19:50,0.664,0.964,0.607,1.183,0.852,0.383,0.672,0.634,��,2.2,��
2020/10/31,20:00,0.666,0.962,0.607,1.186,0.854,0.384,0.671,0.634,��쐼,1.7,��
2020/10/31,20:10,0.666,0.964,0.606,1.184,0.853,0.384,0.671,0.634,��,1.9,��
2020/10/31,20:20,0.664,0.963,0.607,1.185,0.851,0.383,0.673,0.632,��쐼,2.2,��
2020/10/31,20:30,0.667,0.965,0.607,1.186,0.852,0.384,0.671,0.633,��,1.9,��
2020/10/31,20:40,0.666,0.962,0.607,1.185,0.852,0.383,0.671,0.633,��,2.5,��
2020/10/31,20:50,0.667,0.963,0.608,1.184,0.853,0.382,0.672,0.634,��쐼,2.6,��
2020/10/31,21:00,0.666,0.963,0.607,1.184,0.855,0.384,0.671,0.633,��쐼,3.0,��
2020/10/31,21:10,0.665,0.963,0.608,1.185,0.852,0.384,0.670,0.632,��쐼,3.8,��
2020/10/31,21:20,0.665,0.963,0.607,1.182,0.852,0.383,0.671,0.632,��,3.3,��
2020/10/31,21:30,0.665,0.962,0.608,1.182,0.853,0.384,0.671,0.635,��쐼,3.5,��
2020/10/31,21:40,0.664,0.964,0.607,1.183,0.851,0.384,0.671,0.633,��,4.4,��
2020/10/31,21:50,0.666,0.964,0.607,1.185,0.855,0.383,0.670,0.632,��,4.2,��
2020/10/31,22:00,0.667,0.964,0.608,1.186,0.854,0.385,0.671,0.633,��,3.6,��
2020/10/31,22:10,0.664,0.963,0.605,1.181,0.853,0.383,0.672,0.632,��쐼,4.0,��
2020/10/31,22:20,0.665,0.964,0.606,1.184,0.852,0.383,0.670,0.634,��쐼,4.2,��
2020/10/31,22:30,0.666,0.963,0.607,1.182,0.853,0.382,0.670,0.632,��쐼,4.7,��
2020/10/31,22:40,0.665,0.965,0.607,1.183,0.852,0.383,0.673,0.633,��쐼,4.2,��
2020/10/31,22:50,0.664,0.962,0.607,1.184,0.852,0.383,0.672,0.633,��쐼,4.6,��
2020/10/31,23:00,0.665,0.963,0.606,1.184,0.854,0.384,0.672,0.633,��쐼,4.6,��
2020/10/31,23:10,0.665,0.961,0.605,1.183,0.852,0.383,0.672,0.635,��쐼,4.7,��
2020/10/31,23:20,0.665,0.963,0.607,1.184,0.851,0.384,0.670,0.631,��쐼,5.3,��
2020/10/31,23:30,0.665,0.964,0.607,1.185,0.852,0.383,0.672,0.633,��쐼,5.3,��
2020/10/31,23:40,0.665,0.963,0.605,1.185,0.852,0.383,0.672,0.634,��쐼,5.2,��
2020/10/31,23:50,0.665,0.961,0.607,1.184,0.851,0.383,0.670,0.634,��쐼,4.8,��
